Regional Weather Roundup
Issued by NWS

Home | Current Version | Previous Version | Graphics & Text | Print | Product List | Glossary On
Versions: 1 2 3 4 5 6 7 8 9 10 11 12 13 14 15 16 17 18 19 20 21 22 23 24 25 26 27 28 29 30 31 32 33 34 35 36 37 38 39 40 41 42 43 44 45 46 47 48 49 50
000
ASUS43 KIND 310209
RWRIN

WEATHER ROUNDUP FOR INDIANA
NATIONAL WEATHER SERVICE INDIANAPOLIS IN
1000 PM EDT MON MAY 30 2016

NOTE: "FAIR" INDICATES FEW OR NO CLOUDS BELOW 12,000 FEET WITH NO
SIGNIFICANT WEATHER AND/OR OBSTRUCTIONS TO VISIBILITY.

* - STATION DOES NOT REPORT WEATHER SUCH AS PRECIPITATION OR FOG.

+ - STATION NOT QUALITY CONTROLLED BY THE NATIONAL WEATHER SERVICE.
    USE DATA WITH CAUTION...ESPECIALLY DEWPOINT AND RELATIVE
    HUMIDITY OBSERVATIONS.

INZ001>003-010>013-019-020-310300-
NORTHWEST INDIANA

CITY           SKY/WX    TMP DP  RH WIND       PRES   REMARKS
GARY /AIRPORT/ MOCLDY    72  63  73 E8        29.97S
KNOX *+        PTCLDY    70  46  43 NE6       29.97R
LA PORTE +     CLOUDY    74  58  59 N3        29.98S
MICHIGAN CITY+ MOCLDY    68  57  68 CALM      29.98S
MONTICELLO +   MOCLDY    76  50  39 N3        29.96S
RENSSELAER +   MOCLDY    75  55  50 CALM      29.96S
VALPARAISO     PTCLDY    73  58  59 N3        29.98R

$$

LMZ046-743>745-310300-
SOUTHERN LAKE MICHIGAN

STATION/POSITION TIME  TEMP    WIND        PRES    WAVE
                       AIR SEA DIR/SP/G            HT
                 (UTC) (F)     (DEG/KT/KT) (MB)    (FT)
BURNS HARBOR     0100   67      80/ 10/ 12 1015.2R
MICHIGAN CITY    0100   69      40/ 12/ 12   N/A
5NW MICH CITY    0200   64 62   80/  4/  4   N/A     0

$$

INZ004-005-014>016-021>024-310300-
NORTH CENTRAL INDIANA

CITY           SKY/WX    TMP DP  RH WIND       PRES   REMARKS
GOSHEN         CLOUDY    68  53  58 NE6       29.98R
LOGANSPORT +   MOCLDY    75  54  46 SW3       29.97R
PERU/GRISSOM   PTCLDY    72  59  64 NE6       29.97R HAZE
ROCHESTER +    MOCLDY    77  59  53 CALM      29.98R
SOUTH BEND     CLOUDY    70  56  61 N5        29.98S
WARSAW +       PTCLDY    73  54  49 NE3       29.98R

$$

INZ006>009-017-018-025>027-310300-
NORTHEAST INDIANA

CITY           SKY/WX    TMP DP  RH WIND       PRES   REMARKS
ANGOLA *+        N/A     68  59  73 CALM      30.00R
AUBURN +       PTCLDY    72  52  49 CALM      30.00R
FORT WAYNE     MOCLDY    75  52  44 N5        29.98R
HUNTINGTON +   CLEAR    N/A N/A N/A N5        29.97S

$$

INZ028-029-035-036-043>045-051>053-310300-
WEST CENTRAL INDIANA

CITY           SKY/WX    TMP DP  RH WIND       PRES   REMARKS
CRAWFORDSVL +  CLOUDY    73  56  55 SW3       29.98S
GREENCASTLE +  CLOUDY    70  63  78 CALM      30.00R
LAFAYETTE      PTCLDY    73  59  61 W3        29.96R
TERRE HAUTE    PTCLDY    73  63  70 CALM      29.99R

$$

INZ030>032-037>040-046>048-054>057-064-065-310300-
CENTRAL INDIANA

CITY           SKY/WX    TMP DP  RH WIND       PRES   REMARKS
CP ATTERBURY + MOCLDY    68  63  83 W3        29.99R
COLUMBUS       CLEAR     73  59  60 CALM      29.98S
FRANKFORT +      N/A     75  38  26 W3        30.00R
GREENWOOD *+   MOCLDY    75  57  53 W3        30.00R
INDIANAPOLIS   CLOUDY    74  58  57 SW7       29.97S
-EAGLE CREEK   CLOUDY    77  57  50 SW3       29.98R
KOKOMO *+      PTCLDY    75  54  46 W5        29.97R
MARION +       MOCLDY    76  55  48 CALM      29.98R HAZE
SHELBYVILLE    CLEAR     78  55  44 W6        29.98R
ZIONSVILLE +   MOCLDY    72  57  60 SW3       29.99S

$$

INZ033-034-041-042-049-050-058-059-310300-
EAST CENTRAL INDIANA

CITY           SKY/WX    TMP DP  RH WIND       PRES   REMARKS
MUNCIE         PTCLDY    79  54  41 SW3       29.98R

$$

INZ060-061-067>069-081>083-085>088-310300-
SOUTHWEST INDIANA

CITY           SKY/WX    TMP DP  RH WIND       PRES   REMARKS
EVANSVILLE     CLOUDY    75  62  64 CALM      29.98S
HUNTINGBURG *+ MOCLDY    73  61  64 CALM      29.98S
WASHINGTON +   CLOUDY    70  67  88 CALM      29.97S

$$

INZ062-063-066-070>080-084-089>092-310300-
SOUTH CENTRAL AND SOUTHEAST INDIANA

CITY           SKY/WX    TMP DP  RH WIND       PRES   REMARKS
BEDFORD +      CLOUDY    72  66  83 CALM      29.98S
BLOOMINGTON    PTCLDY    69  64  84 CALM      30.00R
MADISON *+     CLEAR     70  61  73 CALM      30.01R
NORTH VERNON + HAZE      72  66  83 CALM      29.99R VSB 3/4
SEYMOUR +      PTCLDY    73  59  60 CALM      29.98R

$$





USA.gov is the U.S. government's official web portal to all federal, state and local government web resources and services.